Regional Weather Roundup
Issued by NWS Bismarck, ND

Home | Current Version | Previous Version | Text Only | Print | Product List | Glossary On
Versions: 1 2 3 4 5 6 7 8 9 10 11 12 13 14 15 16 17 18 19 20 21 22 23 24 25 26 27 28 29 30 31 32 33 34 35 36 37 38 39 40 41 42 43 44 45 46 47 48 49 50
000
ASUS43 KBIS 271101
RWRBIS

NWR BROADCAST TEXT
NATIONAL WEATHER SERVICE BISMARCK ND
500 AM CST FRI FEB 27 2015

NOTE: "FAIR" INDICATES FEW OR NO CLOUDS BELOW 12,000 FEET WITH NO
SIGNIFICANT WEATHER AND/OR OBSTRUCTIONS TO VISIBILITY.


CITY           SKY/WX    TMP DP  RH WIND       PRES   REMARKS
WILLISTON      PTCLDY   -10 -14  82 CALM      30.31F
MINOT          MOCLDY    -9 -14  78 S8        30.35F WCI -25
MINOT AFB      MOCLDY   -11 -15  80 SW7       30.36F WCI -26
BISMARCK       PTCLDY   -11 -16  78 CALM      30.43F
DICKINSON      CLEAR     -7 -13  75 S9        30.26F WCI -24
GARRISON         N/A    -15 -21  74 CALM      30.36F
HETTINGER ARPT CLEAR     -5 -10  79 CALM      30.29F
JAMESTOWN      PTCLDY   -10 -16  74 W7        30.42S WCI -25
CARRINGTON     FAIR     -13 -18  77 MISG      30.41F
CROSBY         FAIR      -9 -13  84 S12       30.31F WCI -29
HAZEN          FAIR     -13 -22  64 CALM      30.39F
OAKES            N/A    N/A N/A N/A SW5       30.46F
$$

CITY           SKY/WX    TMP DP  RH WIND       PRES   REMARKS
GRAND FORKS    PTCLDY   -10 -16  74 SW5       30.44F WCI -22
GRAND FORKS AF PTCLDY   -12 -19  73 W6        30.44S WCI -26
DEVILS LAKE    PTCLDY   N/A N/A N/A MISG        N/A
FARGO          PTCLDY   -12 -18  74 S7        30.49S WCI -27
GWINNER        SUNNY     -8 -15  71 SW8       30.48S WCI -23
$$

CITY           SKY/WX    TMP DP  RH WIND       PRES   REMARKS
ABERDEEN       CLEAR    -16 -21  78 SW3       30.50F
MOBRIDGE       PTCLDY    -8 -13  78 SE6       30.41S WCI -21
BUFFALO          N/A     -4 -11  72 SE6       30.15F WCI -16
RAPID CITY     CLEAR     -5 -10  79 S9        30.26F WCI -22
GLASGOW        CLEAR      1  -6  72 SE12      30.18F WCI -16
SIDNEY         CLEAR     -6 N/A N/A CALM      30.32F
WOLF POINT     CLEAR     -3  -9  75 NE7       30.26F WCI -16
GLENDIVE       CLEAR      0  -8  71 S3        30.23F
MILES CITY     CLEAR      0  -7  72 SE12      30.18F WCI -17
BAKER          CLEAR     -5 -10  79 SE9       30.21F WCI -22
$$

CITY           SKY/WX    TMP DP  RH WIND       PRES   REMARKS
BILLINGS       PTCLDY     1  -3  83 SW6       30.03F WCI -10
GREAT FALLS    MOCLDY    11   4  73 S5        29.92F WCI   3
$$




USA.gov is the U.S. government's official web portal to all federal, state and local government web resources and services.